Regional Weather Roundup
Issued by NWS Upton, NY

Current Version | Previous Version | Graphics & Text | Print | Product List | Glossary Off
Versions: 1 2 3 4 5 6 7 8 9 10 11 12 13 14 15 16 17 18 19 20 21 22 23 24 25 26 27

000
ASUS41 KOKX 252105
RWROKX

Regional Weather Roundup
National Weather Service New York NY
500 PM EDT FRI MAY 25 2018

Note: "FAIR" indicates few or no clouds below 12,000 feet with no
significant weather and/or obstructions to visibility.

NYZ071-072-176-178-NJZ106-104-252200-
New York City Metro Area

CITY           SKY/WX    TMP DP  RH WIND       PRES   REMARKS
Central Park   FAIR      84  58  40 VRB6      29.88F
Bronx Bot Gard   N/A     88  54  31 W8        29.86F
Bronx Lehman C   N/A     86  54  32 W9          N/A
LaGuardia Arpt PTSUNNY   88  52  29 SW17G28   29.84F
Queens College   N/A     84  59  42 S9          N/A
Kennedy Intl   PTSUNNY   75  63  66 S14       29.87F
Breezy Point     N/A     79 N/A N/A SW8G16      N/A
Brooklyn Coll    N/A     86  57  37 S13G25      N/A
Staten Island    N/A     86  55  35 W15         N/A
Newark/Liberty FAIR      87  56  34 SW18G28   29.85F
Teterboro      FAIR      87  55  33 W16G25    29.83F
$$

NYZ177-179-078>081-252200-
Long Island New York

CITY           SKY/WX    TMP DP  RH WIND       PRES   REMARKS
Jones Beach      N/A     66 N/A N/A S14G22      N/A
Wantagh          N/A    N/A N/A N/A S13         N/A
Hempstead        N/A    N/A N/A N/A S5        29.89F
Matinecock Pt    N/A     75 N/A N/A SW13        N/A
Farmingdale    FAIR      75  61  61 SW14      29.87F
MacArthur/ISP  PTSUNNY   75  61  61 S17G24    29.87F
Stony Brook      N/A     81  59  47 S6          N/A
Shirley        FAIR      74  61  63 SW15G21   29.88F
Mt Sinai Harb    N/A     79 N/A N/A S13G18      N/A
Westhampton    FAIR      69  58  67 SW13G24   29.90F
East Hampton   FAIR      69  59  70 SW13G23   29.88F
Southold         N/A     75  61  60 SW12        N/A
Montauk          N/A     69  59  70 SW12G23   29.88S
$$

NYZ052-065-067-252200-
Hudson Valley

CITY           SKY/WX    TMP DP  RH WIND       PRES   REMARKS
White Plains   FAIR      84  50  30 SW9G20    29.84F
Larchmont Harb   N/A     82 N/A N/A SW18G24     N/A
Croton On Huds   N/A     84 N/A N/A W8          N/A
Somers           N/A     84  50  30 SW8         N/A
Brewster         N/A     84  52  32 W3          N/A
Newburgh       SUNNY     86  54  32 SW14      29.84F
Montgomery     FAIR      85  57  38 SW14      29.82F
Otisville        N/A     84  54  34 W7          N/A
Warwick          N/A     84  55  37 SW13        N/A
Suffern          N/A     84  54  34 SW7         N/A
Poughkeepsie   FAIR      87  50  27 SW13      29.80F
Albany         PTSUNNY   85  47  26 W14G23    29.79F
$$

NJZ001-105-106-008-010-013-015-019>022-104-252200-
New Jersey

CITY           SKY/WX    TMP DP  RH WIND       PRES   REMARKS
Newark/Liberty FAIR      87  56  34 SW18G28   29.85F
Teterboro      FAIR      87  55  33 W16G25    29.83F
Caldwell       FAIR      87  51  28 W10G17    29.84F
Somerville     FAIR      86  58  38 W8G16     29.85F
Linden         NOT AVBL
Perth Amboy      N/A     84 N/A N/A W14G20      N/A
Sussex         FAIR      85  59  41 SW9G17    29.84F
Andover          N/A     84  56  38 SW10      29.86F
Trenton        FAIR      84  61  45 SW12G24   29.88F
Millville      FAIR      83  60  45 SW10G17   29.93F
Atlantic City  FAIR      86  61  42 SW16G24   29.92F
Wrightstown    FAIR      85  60  41 W16G23    29.87
Toms River     FAIR      87  60  40 W18       29.90F
Belmar         FAIR      86  58  38 SW14G21   29.90F
$$

PAZ047>061-062-071-252200-
Eastern Pennsylvania

CITY           SKY/WX    TMP DP  RH WIND       PRES   REMARKS
Philadelphia   PTSUNNY   85  59  41 SW16      29.90F
Allentown      FAIR      86  59  39 W12G20    29.88F
Scranton       FAIR      84  51  31 SW15G21   29.88F
$$

CTZ002-004>006-009-010-012-RIZ004-006-007-MAZ004-011-015-252200-
Southern New England

 In CT

CITY           SKY/WX    TMP DP  RH WIND       PRES   REMARKS
Bradley Intl   FAIR      88  48  25 SW16G26   29.79F
Hartford       FAIR      88  51  28 W9G16     29.79F
Danbury        FAIR      84  53  34 SW16      29.84F
Wtrbury/Oxford FAIR      84  52  33 SW10G16   29.85F
Norwalk Harbor   N/A     72 N/A N/A SW13        N/A
Bridgeport     FAIR      79  57  46 S18G28    29.83F
Meriden        FAIR      84  54  35 S14G21    29.81F
New Haven      FAIR      76  57  51 SW15G23   29.84F
Chester        FAIR      81  55  41 SW14G21   29.85S
Groton         FAIR      68  58  70 SW13      29.83F
Willimantic    FAIR      87  50  27 SW15G22   29.80F

 In RI

CITY           SKY/WX    TMP DP  RH WIND       PRES   REMARKS
Providence     PTSUNNY   83  55  38 SW17G31   29.80F
Block Island   FAIR      62  57  83 SW24G31   29.87F
Westerly       FAIR      74  58  57 SW12G20   29.86F

In MA

CITY           SKY/WX    TMP DP  RH WIND       PRES   REMARKS
Boston         CLOUDY    87  46  24 SW17G28   29.74F
Worcester      FAIR      82  50  32 SW18G25   29.81F
Westfield      FAIR      88  48  25 SW12G20   29.78F
Provincetown   FAIR      68  56  65 SW24G32   29.78F
Nantucket      FAIR      59  55  87 SW18      29.86F
$$

ANZ330-335-338-340-345-350-353-355-252200-
Coastal Marine Observations


STATION/POSITION TIME  SKY/WX   TEMP    WIND        PRES    VSBY  WAVE
                                AIR SEA DIR/SP/G                  HT/PER
                 (UTC)          (F)     (DEG/KT/KT) (MB)    (MI)  (FT/S)
NY Harb Entrance 2050            63 57  200/ 16/ 19 1011.6          3/ 4
20 S Fire Island 2050            61 56  210/ 17/ 19 1012.3          3/ 4
23 SSW Montauk P 2050            60 56  220/ 17/ 21 1012.2          4/ 5
15 E Barnegat Li 2030               62                N/A           4/ 4
Hudson Canyon    2050            60 55  210/ 14/ 16 1013.7          3/ 4
Kings Point      2030            79 62  310/ 10/ 11 1012.0
Execution Rocks  NOT AVBL
Western LI Sound 2020            72     230/ 10/ 12   N/A           1
Central LI Sound 2030            68     210/ 14/ 16   N/A           1
Robbins Reef     2030            85     240/ 21/ 26 1011.6
$$


>>>>>>>>>>>>>>>>>>>>>>>>>>>> KEY <<<<<<<<<<<<<<<<<<<<<<<<<<<
>                                                          <
>     SKY/WX - Sky Condition/Present Weather               <
>     TMP    - Temperature in Fahrenheit                   <
>     DP     - Dew Point in Fahrenheit                     <
>     RH     - Relative Humidity in Percent                <
>     WIND   - Direction (from) and Speed in MPH           <
>     PRES   - Mean Sea Level Pressure (inches of Hg)      <
>     WCI    - Wind Chill Index                            <
>     VSB    - Visibility in Miles                         <
>     HX     - Heat Index                                  <
>     TC     - Temperature in Celsius                      <
>     VRB    - Varibale Wind Direction                     <
>                                                          <
>>>>>>>>>>>>>>>>>>>>>>>>>>>> KEY <<<<<<<<<<<<<<<<<<<<<<<<<<<




USA.gov is the U.S. government's official web portal to all federal, state and local government web resources and services.